Weather in Tabora

Tanzania     5˚01′50″S   32˚49′11″E
temp.,
°C
wind,
m/s
gust,
m/s
humid.,
%
clouds,
%
prec.,
mm/h
press.,
hPa
HPBL,
m
28 november, sat
sat2800:00+24˚e225383 0.0 100975
03:00+23˚ese145392 0.0 1010224
06:00+22˚ese1357100 0.0 1012163
09:00+24˚e485771 0.0 1014806
12:00+30˚e453915 0.0 10101837
15:00+32˚ese353311 0.0 10062601
18:00+28˚sse244569 0.0 1005150
21:00+26˚sse234684 0.0 100988
29 november, sun
sun2900:00+24˚nw115394 0.0 101023
03:00+22˚ene116089 0.0 101027
06:00+20˚w1176100 0.2 101123
09:00+24˚ene3559100 0.4 1014873
12:00+29˚ene3444100 0.3 10111700
15:00+25˚nnw4566100 1.3 1008535
18:00+23˚nw3674100 0.9 1008334
21:00+20˚w2886100 1.1 1011281
30 november, mon
mon3000:00+19˚nne378998 1.2 1012269
03:00+18˚n379599 2.6 1012294
06:00+18˚nnw2495100 3.9 1013232
09:00+18˚n2394100 7.3 1015243
12:00+22˚n3479100 1.1 1013518
15:00+26˚wnw1157100 1.4 10101046
18:00+24˚sw2364100 0.0 1010181
21:00+19˚ne018999 2.1 101323
1 december, tue
tue100:00+18˚nw119195 0.3 101323
03:00+18˚n009497 0.6 101223
06:00+18˚sse129299 0.5 101237
09:00+22˚sse128194 0.9 1014328
12:00+26˚wsw116482 4.3 1011739
15:00+25˚wsw116992 12.1 1007424
18:00+23˚ssw018099 1.5 100872
21:00+20˚sw128792 2.1 101235
2 december, wed
wed200:00+20˚se0188100 1.8 101223
03:00+19˚n2391100 3.1 101171
06:00+19˚nnw3793100 3.4 1012219
09:00+18˚nnw2691100 5.5 1014239
12:00+18˚n1295100 4.7 1013125
15:00+19˚ene1290100 5.8 1009131
18:00+21˚nne117998 0.0 1009113
21:00+19˚ne238798 0.1 1012102